Вернуться в каталог

STARLINK-4701

АктивенСвязьVLEO
NORAD 53727·PAYLOAD·🇺🇸 United States

Запущен Sep 5, 2022 с Cape Canaveral Space Force Station

Loading…

Ближайшие Пролёты (ближайшие 24 часа)

TLE

СвежийSource: CelesTrak SupGP

Эпоха: Sep 14, 2026, 20:42 UTC

1 53727C 22107AD  26257.86298611 -.00019728  00000+0 -58305-3 0  2578
2 53727  53.1576 111.7929 0001322  90.0467 142.0884 15.34389820    18

Отслеживайте STARLINK-4701 в реальном времени с AllMySat

Download on the App Store